Stations météo

réclame
Mon MeteoGroup
Messina, Italie (16420): Température de l'air & dewpoint: 15.10.2017 05:00:00 - 21.10.2017 05:00:00 (CEST)Messina, Italie (16420): Vitesse du vent: 15.10.2017 05:00:00 - 21.10.2017 05:00:00 (CEST)Messina, Italie (16420): Direction du vent: 15.10.2017 05:00:00 - 21.10.2017 05:00:00 (CEST)Messina, Italie (16420): reduced air pressure: 15.10.2017 05:00:00 - 21.10.2017 05:00:00 (CEST)Messina, Italie (16420): visibility: 15.10.2017 05:00:00 - 21.10.2017 05:00:00 (CEST)Messina, Italie (16420): Ensoleillement: 15.10.2017 05:00:00 - 21.10.2017 05:00:00 (CEST)
Date & Time tt [°C] td [°C] ff [km/h] ff [knt] dd ppp [hPa] vv [km] sd [min]
21.10.2017 05:00:00 18,4 16,4 8 4 W 1019,4 10 -
21.10.2017 04:00:00 18,4 15,8 8 4 WSW 1019,5 10 -
21.10.2017 03:00:00 18,6 14,3 11 6 W 1019,4 10 -
21.10.2017 02:00:00 18,8 13,9 8 4 ESE 1019,4 10 -
21.10.2017 01:00:00 19,6 15,2 9 5 WSW 1019,3 10 -
21.10.2017 00:00:00 20,0 17,4 8 4 WSW 1019,3 10 -
20.10.2017 23:00:00 20,4 17,4 5 3 WSW 1019,3 10 -
20.10.2017 22:00:00 20,6 16,2 11 6 W 1019,2 10 -
20.10.2017 21:00:00 21,0 16,4 11 6 WSW 1018,5 10 -
20.10.2017 20:00:00 21,0 16,8 15 8 WSW 1018,5 10 -
20.10.2017 19:00:00 21,8 17,6 9 5 WSW 1018,3 10 -
20.10.2017 18:00:00 22,4 17,1 11 6 SSW 1017,9 10 0
20.10.2017 17:00:00 23,4 16,7 11 6 S 1017,9 10 60
20.10.2017 16:00:00 23,2 16,3 13 7 SSW 1017,7 10 60
20.10.2017 15:00:00 23,4 16,2 15 8 SSW 1017,8 10 60
20.10.2017 14:00:00 23,6 16,9 16 9 SW 1018,0 10 60
20.10.2017 13:00:00 23,4 15,2 18 10 SSW 1018,3 10 60
20.10.2017 12:00:00 23,0 15,0 16 9 SSW 1018,4 10 60
20.10.2017 11:00:00 22,4 17,0 16 9 SSW 1018,2 10 60
20.10.2017 10:00:00 21,4 16,5 13 7 SSW 1017,7 10 60
20.10.2017 09:00:00 19,8 15,8 9 5 SSW 1017,6 10 36
20.10.2017 08:00:00 18,8 16,2 9 5 WSW 1017,4 10 0
20.10.2017 07:00:00 19,2 17,2 5 3 - 1017,3 10 -
20.10.2017 06:00:00 19,2 16,8 11 6 W 1017,2 10 -
20.10.2017 05:00:00 20,0 17,6 8 4 W 1017,2 10 -
20.10.2017 04:00:00 20,8 18,7 13 7 SW 1017,2 10 -
20.10.2017 03:00:00 21,0 18,8 13 7 SW 1017,2 10 -
20.10.2017 02:00:00 21,0 18,2 18 10 SW 1017,2 10 -
20.10.2017 01:00:00 21,0 18,2 16 9 N 1017,1 10 -
20.10.2017 00:00:00 19,8 17,2 13 7 WSW 1017,4 10 -
19.10.2017 23:00:00 20,0 15,7 8 4 ENE 1017,4 10 -
19.10.2017 22:00:00 20,6 12,6 11 6 WSW 1017,4 10 -
19.10.2017 21:00:00 20,4 13,8 15 8 WSW 1017,4 10 -
19.10.2017 20:00:00 21,2 16,2 11 6 WSW 1017,1 10 -
19.10.2017 19:00:00 21,4 16,1 13 7 SW 1017,1 10 -
19.10.2017 18:00:00 21,8 15,4 11 6 SSW 1017,1 10 18
19.10.2017 17:00:00 22,8 15,6 13 7 SSW 1017,2 10 60
19.10.2017 16:00:00 23,6 17,1 13 7 SSE 1017,6 10 60
19.10.2017 15:00:00 23,4 14,4 15 8 ENE 1017,6 10 60
19.10.2017 14:00:00 22,4 13,7 13 7 ENE 1018,1 10 42
19.10.2017 13:00:00 23,4 13,6 16 9 E 1018,1 10 48
19.10.2017 12:00:00 23,0 14,8 18 10 ENE 1018,1 10 60
19.10.2017 11:00:00 22,0 15,6 16 9 ENE 1018,0 10 60
19.10.2017 10:00:00 21,4 16,6 16 9 NE 1017,9 10 60
19.10.2017 09:00:00 19,6 16,2 15 8 NE 1017,7 10 60
19.10.2017 08:00:00 18,8 16,0 11 6 NNE 1017,8 10 0
19.10.2017 07:00:00 18,8 16,2 13 7 N 1018,2 10 0
19.10.2017 06:00:00 18,8 15,9 11 6 N 1018,2 10 -
19.10.2017 05:00:00 18,6 15,7 9 5 NNW 1018,2 10 -
19.10.2017 04:00:00 18,4 15,7 9 5 N 1018,3 10 -
19.10.2017 03:00:00 18,6 14,9 9 5 NW 1018,5 10 -
19.10.2017 02:00:00 19,0 15,3 8 4 N 1018,5 10 -
19.10.2017 01:00:00 19,2 15,7 9 5 NNE 1018,5 10 -
19.10.2017 00:00:00 19,4 15,7 13 7 N 1018,5 10 -
18.10.2017 23:00:00 19,6 15,2 13 7 N 1018,5 10 -
18.10.2017 22:00:00 20,0 15,7 9 5 N 1018,5 10 -
18.10.2017 21:00:00 20,2 14,8 8 4 N 1018,5 10 -
18.10.2017 20:00:00 20,6 15,2 13 7 NNE 1018,4 10 -
18.10.2017 19:00:00 20,8 15,4 15 8 N 1018,3 10 0
18.10.2017 18:00:00 21,4 14,8 15 8 NNW 1018,3 10 42
18.10.2017 17:00:00 23,4 16,0 11 6 NNE 1018,4 10 60
18.10.2017 16:00:00 23,8 12,8 13 7 N 1018,3 10 60
18.10.2017 15:00:00 23,8 15,6 18 10 NE 1019,0 10 60
18.10.2017 14:00:00 23,8 16,1 22 12 NE 1019,4 10 60
18.10.2017 13:00:00 23,2 15,8 21 11 ENE 1020,0 10 60
18.10.2017 12:00:00 23,4 13,0 13 7 N 1020,3 10 60
18.10.2017 11:00:00 22,2 14,1 15 8 NNE 1020,4 10 60
18.10.2017 10:00:00 21,0 16,2 15 8 ENE 1020,5 10 60
18.10.2017 09:00:00 19,2 15,7 15 8 N 1020,4 10 42
18.10.2017 08:00:00 18,8 16,6 11 6 NNW 1020,4 10 0
18.10.2017 07:00:00 18,8 16,4 13 7 NNW 1020,5 10 -
18.10.2017 06:00:00 18,8 16,8 15 8 NNW 1020,5 10 -
18.10.2017 05:00:00 18,8 16,6 13 7 NNW 1021,1 10 -
18.10.2017 04:00:00 18,8 16,4 13 7 N 1021,5 10 -
18.10.2017 03:00:00 19,0 16,8 11 6 N 1021,6 10 -
18.10.2017 02:00:00 19,0 16,6 15 8 NNE 1022,3 10 -
18.10.2017 01:00:00 19,0 16,4 13 7 N 1022,4 10 -
18.10.2017 00:00:00 19,2 16,6 11 6 N 1022,5 10 -
17.10.2017 23:00:00 19,4 16,4 13 7 N 1022,6 10 -
17.10.2017 22:00:00 19,8 16,7 9 5 NW 1022,5 10 -
17.10.2017 21:00:00 20,2 16,8 8 4 NNW 1022,6 10 -
17.10.2017 20:00:00 21,0 17,8 5 3 NNW 1022,6 10 -
17.10.2017 19:00:00 21,4 17,6 8 4 W 1022,6 10 0
17.10.2017 18:00:00 22,2 17,4 11 6 SW 1022,6 10 48
17.10.2017 17:00:00 23,6 14,3 13 7 SSW 1022,7 10 60
17.10.2017 16:00:00 23,4 12,7 15 8 SSW 1023,0 10 60
17.10.2017 15:00:00 23,2 13,1 15 8 SSW 1023,4 10 60
17.10.2017 14:00:00 22,8 15,1 16 9 SSW 1024,2 10 60
17.10.2017 13:00:00 22,8 14,1 18 10 SSW 1024,8 10 60
17.10.2017 12:00:00 22,4 15,0 16 9 SSW 1025,0 10 60
17.10.2017 11:00:00 21,8 15,2 15 8 SSW 1025,3 10 60
17.10.2017 10:00:00 21,2 14,8 13 7 ESE 1025,3 10 60
17.10.2017 09:00:00 19,0 14,5 8 4 NNE 1025,3 10 60
17.10.2017 08:00:00 17,2 15,6 5 3 - 1024,9 10 6
17.10.2017 07:00:00 17,4 15,7 5 3 SW 1024,8 10 -
17.10.2017 06:00:00 17,6 15,8 5 3 W 1024,8 10 -
17.10.2017 05:00:00 17,6 15,2 9 5 W 1024,7 10 -
17.10.2017 04:00:00 17,8 16,0 8 4 W 1025,3 10 -
17.10.2017 03:00:00 18,0 16,3 5 3 - 1025,5 10 -
17.10.2017 02:00:00 18,4 16,7 5 3 S 1025,6 10 -
17.10.2017 01:00:00 18,6 16,6 5 3 SW 1026,1 10 -
17.10.2017 00:00:00 18,8 16,6 5 3 - 1026,3 10 -
16.10.2017 23:00:00 19,0 16,4 5 3 - 1026,3 10 -
16.10.2017 22:00:00 19,2 16,6 5 3 - 1026,3 10 -
16.10.2017 21:00:00 20,2 17,4 5 3 - 1026,1 10 -
16.10.2017 20:00:00 20,8 17,8 5 3 NNW 1025,6 10 -
16.10.2017 19:00:00 21,4 17,8 5 3 W 1025,5 10 0
16.10.2017 18:00:00 22,2 17,8 13 7 ENE 1025,5 10 36
16.10.2017 17:00:00 23,6 17,8 16 9 ENE 1025,4 10 60
16.10.2017 16:00:00 24,2 17,5 15 8 ENE 1025,4 10 60
16.10.2017 15:00:00 24,2 17,5 16 9 ENE 1026,2 10 60
16.10.2017 14:00:00 24,2 17,7 18 10 ENE 1026,3 10 60
16.10.2017 13:00:00 24,0 17,3 21 11 ENE 1026,7 10 60
16.10.2017 12:00:00 24,0 18,0 21 11 ENE 1026,8 10 60
16.10.2017 11:00:00 23,0 17,7 16 9 ENE 1027,1 10 60
16.10.2017 10:00:00 21,8 17,4 21 11 ENE 1026,4 10 60
16.10.2017 09:00:00 19,8 16,8 13 7 NE 1026,3 10 60
16.10.2017 08:00:00 19,4 16,4 9 5 N 1025,8 10 6
16.10.2017 07:00:00 19,6 16,4 11 6 N 1025,9 10 -
16.10.2017 06:00:00 19,4 16,2 13 7 N 1025,9 10 -
16.10.2017 05:00:00 19,6 16,4 9 5 NNW 1025,9 10 -
16.10.2017 04:00:00 20,0 16,4 11 6 NNW 1026,2 10 -
16.10.2017 03:00:00 20,0 16,0 11 6 NNE 1026,2 10 -
16.10.2017 02:00:00 20,0 16,0 11 6 N 1026,4 10 -
16.10.2017 01:00:00 20,4 16,4 15 8 N 1026,4 10 -
16.10.2017 00:00:00 20,4 17,2 13 7 N 1026,4 10 -
15.10.2017 23:00:00 20,4 17,4 13 7 NNE 1026,4 10 -
15.10.2017 22:00:00 20,4 17,0 11 6 N 1026,4 10 -
15.10.2017 21:00:00 21,0 17,4 11 6 N 1026,3 10 -
15.10.2017 20:00:00 21,0 17,2 11 6 NNE 1026,0 10 -
15.10.2017 19:00:00 21,4 16,4 9 5 NNE 1025,7 10 -
15.10.2017 18:00:00 22,4 15,7 13 7 NE 1025,6 10 48
15.10.2017 17:00:00 23,8 13,4 15 8 NE 1025,6 10 60
15.10.2017 16:00:00 24,2 12,2 13 7 NNE 1025,9 10 60
15.10.2017 15:00:00 24,2 12,8 16 9 N 1026,2 10 60
15.10.2017 14:00:00 24,4 13,9 13 7 NNW 1026,3 10 60
15.10.2017 13:00:00 23,8 13,4 16 9 N 1026,5 10 60
15.10.2017 12:00:00 23,0 14,0 15 8 NNW 1026,5 10 60
15.10.2017 11:00:00 22,2 14,8 15 8 N 1026,5 10 60
15.10.2017 10:00:00 21,2 15,3 16 9 NW 1026,5 10 60
15.10.2017 09:00:00 21,0 17,0 21 11 NW 1026,4 10 60
15.10.2017 08:00:00 19,4 16,6 16 9 NW 1025,7 10 0
15.10.2017 07:00:00 19,4 16,2 16 9 NW 1025,7 10 -
15.10.2017 06:00:00 19,4 16,2 18 10 NW 1025,6 10 -
15.10.2017 05:00:00 19,4 15,9 16 9 NW 1025,5 10 -

tt = Température de l'air
td = dewpoint
ff = Vitesse du vent
dd = Direction du vent
ppp = reduced air pressure
vv = visibility
sd = Ensoleillement

stations d'obs. à proximité